COSMOS 1275 DEB, 13017

Orbit data source: Space-Track

COSMOS 1275 DEB, 13017 is space debris in LEO originally from a launch on Thu, 04 Jun 1981 UTC launched from the Plesetsk Missile And Space Complex (PKMTR). Debris objects in space refer to the collection of defunct objects orbiting the Earth. Examples of debris include non-operational satellites, rocket bodies, and fragments generated from explosions, collisions, or faulty payload assembly.

Loading next visibility...
Identifier
13017, 1981-053EP
Orbit
LEO
Country
Flag of CISCIS
Related business
Manufacturer
Unknown
Mission
Spacecraft
Bus & Motor
Unknown
Mass
Unknown
Launch date (UTC)
1981-06-04 (45 years ago)
Launch vehicle
Unknown
Launch site
Plesetsk Missile And Space Complex (PKMTR)
Object type
Payload
Rocket body
Debris
Shape & HBR
Unknown shape, 0.1 m
Radar Cross Section
Medium (>0.1 m² and <1 m²)

Expand to show TLE details & history
Last TLE update: 1 day ago

TLE from 1 day ago
0 COSMOS 1275 DEB
1 13017U 81053EP  26171.39228455  .00000778  00000-0  50787-3 0  9996
2 13017  82.9294 291.9258 0031177 203.6203 224.1735 14.00902147257397
Epoch: 2026-06-20T09:24Z
TLE epoch observation values (Epoch: 2026-06-20T09:24:53.385Z)
Latitude
66.5967°
Longitude
-101.3403°
Altitude
918.487 km
Speed
7.391 km/s
True Right ascension
20h 33m 57s
True Declination
66° 28' 26"
Sunlit
Object was in daylight at epoch
Visualization orbit readout
Latitude
Unknown
Longitude
Unknown
Altitude
Unknown
Speed
Unknown
Apparent Right ascension
Unknown
Apparent Declination
Unknown
Sunlit
N/A
Visualization observer readout
Local Sidereal Time
07:51:42
Azimuth
Unknown
Elevation
Unknown
Doppler factor
Unknown
Orbital elements
Apogee altitude
910.439 km
Perigee altitude
865.133 km
Semi-major axis
7,265.923 km
Eccentricity
0.00312
Inclination
82.9294°
RAAN
291.9258°
Arg. of periapsis
203.6203°
True anomaly
223.92524°
Mean anomaly
224.1735°
Eccentric anomaly
224.0493°
Mean motion
3.50435 °/min
Orbital period
102.73 mins
BSTAR
0.00050787
Loading maneuver chart data...
Computing Atmospheric mass density...

Documentation

Showing up to 5 results
|